Terug naar catalogus

AUREOLE 1

ActiefWetenschapLEO
NORAD 5729·PAYLOAD·🇫🇷 France

Gelanceerd Dec 27, 1971 vanaf Plesetsk Cosmodrome

Loading…

Volgende Passages (komende 24 uur)

TLE

VersSource: Space-Track

Epoch: Sep 14, 2026, 14:13 UTC

1 05729U 71119A   26257.59289035  .00002641  00000-0  17899-3 0  9995
2 05729  73.9466 290.7631 0701020 113.9649 253.6493 14.00482094654224

Volg AUREOLE 1 in realtime met AllMySat

Download on the App Store